SL-14 DEB, 45291

Orbit data source: Space-Track

SL-14 DEB, 45291 is space debris in LEO originally from a launch on Thu, 15 Aug 1991 UTC launched from the Plesetsk Missile And Space Complex (PKMTR). Debris objects in space refer to the collection of defunct objects orbiting the Earth. Examples of debris include non-operational satellites, rocket bodies, and fragments generated from explosions, collisions, or faulty payload assembly.

Loading next visibility...
SL-14 DEB details
Identifier
45291, 1991-056AD
Orbit
LEO
Last TLE update2 days ago
Origin
Flag of CISRosgidromet (CIS)
ManufacturerUnknown
MissionSpacecraft
Bus & MotorUnknown
MassUnknown
Launch date (UTC)
1991-08-15 (33 years ago)
Launch vehicleUnknown
Launch site
Plesetsk Missile And Space Complex (PKMTR)
Object type
Payload
Rocket body
Debris
Shape & HBRUnknown
Radar Cross SectionSmall (<0.1 m²)

Expand to show TLE details & history

TLE from 2 days ago
0 SL-14 DEB
1 45291U 91056AD  24359.91744158  .00000000  00000-0 -33594-4 0  9993
2 45291  82.5483 174.5236 0039843 210.1779 149.7044 13.10572433231920
Epoch: 2024-12-24T22:01Z
Definitive object data (Epoch: 2024-12-24T22:01:06.952Z)
Latitude-0.00009°
Longitude110.32596°
Altitude1,249.921 km
Speed7.218 km/s
True Right ascension11h 38m 05s
True Declination0° 00' 00"
Sunlit
Object was in daylight at TLE epoch
Visualization TLE readout
Latitude0.91662°
Longitude109.37776°
Altitude1,250.968 km
Speed7.217 km/s
Apparent Right ascension13h 41m 13s
Apparent Declination-47° 02' 47"
Sunlit
Object is in daylight
Visualization observer readout
Local Sidereal Time10:01:17
Azimuth145.509° SSE
Elevation-9.773°
Doppler factor1
Orbital elements
Apogee altitude1,248.465 km
Perigee altitude1,187.933 km
Semi-major axis7,596.336 km
Eccentricity0.0039843
Inclination82.5483°
RAAN174.5236°
Arg. of periapsis210.1779°
True anomaly149.93373°
Mean anomaly149.7044°
Eccentric anomaly149.81917°
Mean motion3.27821 °/min
BSTAR-0.000033594
Orbital period109.82 mins
Loading maneuver chart data...
Loading historical data...
Loading historical data...
Loading historical data...
Loading historical data...
Loading historical data...
Loading historical data...
Loading historical data...

SL-14 DEB Visibility forecast

Observer location: undefined°, undefined

Span
Click to sort rows by Start time (UTC) header in descending order
Start Az.
Max El. time (UTC)
Max El. Az.
Max El.
End time (UTC)
End Az.
7 mins2024-12-26 10:49:04.281Z107.962° ESE2024-12-26 10:52:04.281Z82.323° E15.936°2024-12-26 10:56:04.281Z48.075° ENE
13 mins2024-12-26 12:36:04.281Z188.997° SSW2024-12-26 12:42:04.281Z265.341° W44.847°2024-12-26 12:49:04.281Z6.151° NNE
6 mins2024-12-26 14:31:04.281Z271.742° WNW2024-12-26 14:34:04.281Z297.138° NW14.505°2024-12-26 14:37:04.281Z322.508° NNW
9 mins2024-12-26 22:17:04.281Z28.063° NE2024-12-26 22:21:04.281Z69.727° E23.098°2024-12-26 22:26:04.281Z118.02° SE
13 mins2024-12-27 00:06:04.281Z342.637° N2024-12-27 00:12:04.281Z274.22° WNW40.427°2024-12-27 00:19:04.281Z192.055° SSW
|